sat.trackr.live / text

‹ back to catalog

2025-313BC

NORAD 67298 · 2025-313BC

PAYLOAD ACTIVE UNKNOWN

§ Identity

Operator
Country
TBD
Launch date
2025-12-28
Launch site
VOSTO
Launch vehicle
Mass (kg)
RCS (m²)

External: N2YO · Heavens-Above · Gunter

§ Orbital elements

Epoch: 2026-05-25T04:44:19.983264Z

Period
93.33 min
Inclination
97.3882°
Eccentricity
0.0005948
Mean motion
15.42840973 rev/d
Perigee alt
433.7 km
Apogee alt
441.8 km
Semi-major
6,815.9 km
B*
2.9282e-3
RAAN
222.1347°
Arg perigee
92.9028°
Mean anomaly
267.2900°
Rev number
1,971

§ Raw data

2025-313BC1 67298U 25313BC  26145.19745351  .00130344  00000+0  29282-2 0  99982 67298  97.3882 222.1347 0005948  92.9028 267.2900 15.42840973 19715

JSON: /api/v1/satellites/67298 · /tle

For live sub-satellite position, see the globe view (requires WebGL).

§ Visibility from observer

Set your observer location to see the next 7 days of passes ≥ 10°. The values pass through the URL so the page stays shareable.

No JS? Fill the form by hand. The geolocation button needs JavaScript.